Location: Newark
(52.2090°N, 4.1550°W)
Time: 19:57:11
(UTC+00:00)

Explorer 7 - Pass Details

Date: 19 September 2019
Orbit: 485 x 680 km, 50.3° (Epoch: 13 October)

Event Time Altitude Azimuth Distance (km) Brightness Sun altitude
Exits shadow 05:04:48 10° 272° (W) 2,104 9.2 -8.7°
Maximum altitude 05:09:01 30° 212° (SSW) 1,222 8.2 -8.1°
Drops below altitude 10° 05:13:14 10° 153° (SSE) 2,110 10.0 -7.5°
Sets 05:15:49 0° 142° (SE) 3,011 11.0 -7.1°
